Location: Hanover
(52.3667°N, 9.7167°E)
Time: 05:04:30
(UTC+02:00)

ARIANE 6 FM1 Upper Stage - Pass Details

Date: 26 September 2024
Orbit: 564 x 594 km, 62.0° (Epoch: 06 October)

Event Time Altitude Azimuth Distance (km) Brightness Sun altitude
Rises 22:22:08 0° 273° (W) 2,802 7.0 -28.2°
Reaches altitude 10° 22:24:39 10° 286° (WNW) 1,910 6.2 -28.5°
Maximum altitude 22:28:20 27° 345° (NNW) 1,155 4.7 -29.0°
Enters shadow 22:29:13 25° 5° (N) 1,211 4.6 -29.1°
